Погода в Димитровграде

Погода в Димитровграде : погода сейчас, прогноз погоды и архив. Всё, что Вы хотите узнать о погоде в Димитровграде!

Хотите узнать прогноз погоды в Димитровграде? Тогда Вам сюда: Погода в Димитровграде

Поиск расширенной информации на нашем сайте:

Другие новости

Новости СМИ2

Главная страница сайта

Новости сайта

03.07.2017

Напоминаем, что на нашем специализированном сайте Метеоцентр.Азия вы можете получить высокодетализированные автоматические прогнозы погоды по пунктам России, СНГ и мира в авиационном формате (включающие направление и скорость ветра, видимость, явления погоды, количество и форму облачности, нижнюю и верхнюю границу облачности).


Погода в Димитровграде - сегодня

Время (UTC), дата Ветер
(°,м/с) 
Видим.   Явления Облачность Т
(°С)
Тd
(°С)
f(%) Тe
(°С)
Pmin
(гПа)
dP
(гПа)
Po
(мм)
O2
(г/м3)
Тmin Tmax R s Состояние
почвы
09 13.01.18 350 (С) 10 км    ясно 
-14 -18.1 71 -14  1041  -0.2  773  330           
12 13.01.18 340 (С) 10 км    ясно 
-14.2 -18.7 69 -14  1040.5  -0.5  773  330           
15 13.01.18 тихо ()   10 км    ясно 
-19.8 -21.5 86 -20  1040.5  -0.2  773  337    -12.8       
18 13.01.18 тихо ()   10 км    10/0 средняя 
[As op]
-21 -23.2 82 -21  1039.9  -0.6  772  339           
21 13.01.18 260 (З) 10 км    8/0 верхняя 
[Ci sp]
-18.7 -20.9 83 -19  1038.9  -0.8  772  335           
00 14.01.18 тихо ()   10 км    8/0 верхняя 
[Ci sp]
-20 -22.2 83 -20  1038  -1  771  337           
03 14.01.18 тихо ()   10 км  слаб. снег  10/0 средняя 
[As op]
-17.9 -19.9 84 -18  1036.5  -1.4  770  334  -21.9    0.0  28  равномерный
сухой снег
100% 
06 14.01.18 тихо ()   4000 м  слаб. снег  10/0 средняя 
[As op]
-13.9 -15.8 86 -14  1035.6  -0.7  769  328           
09 14.01.18 300 (СЗ) 10 км  слаб. снег  10/0 средняя 
[As op]
-7.5 -10.5 79 -9  1035  -0.4  769  320           
12 14.01.18 280 (З) 10 км  в посл. час снег  8/0 средняя 
[Ac As]
-7.8 -10.4 82 -8  1035.1  -0.1  769  320           
15 14.01.18 330 (СЗ) 10 км  {снег}  9/0 средняя 
[Ac As]
-10 -10.9 93 -10  1035.9  0.7  770  323    -6.9     
18 14.01.18 тихо ()   10 км  {снег}  10/6 900 м средняя 
[Sc|As trans]
-8.7 -9.7 92 -9  1036.4  0.6  770  322           
21 14.01.18 тихо ()   10 км    10/0 средняя 
[As op]
-8.5 -9.6 92 -9  1037.5  1.1  771  322           
00 15.01.18 тихо ()   10 км    10/0 верхняя 
[Cs]
-8.5 -9.8 90 -9  1038.2  0.7  771  322           
03 15.01.18 тихо ()   10 км    10/0 средняя 
[As op]
-8.5 -9.3 94 -9  1038.6  0.4  772  322  -10      29  равномерный
сухой снег
100% 
06 15.01.18 тихо ()   4000 м  дымка  10/0 средняя 
[As op]
-7.8 -8.8 93 -8  1039.4  0.9  772  321           
09 15.01.18 010 (С) 4000 м  дымка  10/0 средняя 
[As op]
-6.9 -8.6 88 -7  1039.3  772  320           
12 15.01.18 340 (С) 10 км    10/0 средняя 
[As op]
-6.5 -8.5 86 -6  1039.3  -0.2  772  320           
15 15.01.18 310 (СЗ) 10 км    10/0 средняя 
[As op]
-7.3 -8.2 93 -7  1038.8  -0.5  772  320    -6.3       
18 15.01.18 310 (СЗ) 10 км    10/0 средняя 
[As op]
-7.4 -8 95 -7  1038  -0.8  771  320           
21 15.01.18 310 (СЗ) 10 км    10/0 средняя 
[As op]
-7.8 -8.6 94 -9  1037.8  -0.2  771  321           
00 16.01.18 280 (З) 10 км    10/0 средняя 
[As op]
-7.8 -8.6 94 -8  1037.1  -0.7  771  321           
03 16.01.18 320 (СЗ) 10 км    10/0 средняя 
[As op]
-6.8 -7.5 95 -8  1035.8  -1.2  770  319  -7.9      29  равномерный
сухой снег
100% 
06 16.01.18 310 (СЗ) 4000 м  дымка  10/0 средняя 
[As op]
-6.5 -7.2 95 -8  1035.1  -0.6  769  318           
09 16.01.18 340 (С) 4000 м  дымка  10/0 средняя 
[As op]
-6 -6.8 94 -6  1033.9  -1.2  768  317           
Время (UTC), дата Ветер
(°,м/с) 
Видим.   Явления Облачность Т
(°С)
Тd
(°С)
f(%) Тe
(°С)
Pmin
(гПа)
dP
(гПа)
Po
(мм)
O2
(г/м3)
Тmin Tmax R s Состояние
почвы

Для получения пояснительной информации подведите курсор к названию столбца.

ПОГОДА в Димитровграде - архив

Всё, что Вы хотите узнать о погоде в Димитровграде - удобно и подробно!

Выберите нужную дату (начиная с 1 января 2015* года) и нажмите кнопку "Найти".
Будут отображены архивные сводки погоды по пункту Димитровград, начиная с указанной даты.


Отображать данные в формате CSV (для использования в таблицах Excel)


Внимание! Наш архив погоды предназначен исключительно для личного некоммерческого использования в познавательных целях. Если Вам необходимы официальные справки о состоянии погоды (для производственных, юридических, коммерческих и т.п. целей), обращайтесь в органы Росгидромета.

*Примечание: данная дата относится к архиву по метеостанциям СССР (Россия, СНГ, Балтия).
Архив по метеостанциям Зарубежной Европы и Азии (кроме Китая) хранится 10 дней, по другим регионам земного шара (Китай, Африка, Америка, Австралия, Океания) - 1 день.

Димитровград - район местоположения метеостанции


Название, широта, долгота, высота метеостанции:
Димитровград 54.2°ш. 49.6°д. 73 м над ур. моря [Российская Федерация]

Дополнительная информация

В oтличие oт бoльшинства пoгoдных сайтoв мы публикуем пoдрoбную метеoинфoрмацию в детальнoм прoфессиoнальнoм фoрмате.

Характеристики температуры и влажнoсти вoздуха измеряются на высoте 2 м в тени вдали oт зданий и деревьев.
Скoрoсть ветра измеряется на высoте 10 м (на урoвне рoста челoвека скoрoсть ветра ниже в 1.5-2 раза). Если метеoстанция нахoдится в гoрoде или в лесу, тo скoрoсть ветра занижена на 2-4 м/с пo сравнению с oткрытым местoм. Скoрoсть ветра над акватoриями крупных рек и oзёр, а также на вершинах хoлмoв на 2-5 м/с выше, чем в oбычных услoвиях.
Атмoсфернoе давление в разных тoчках местнoсти мoжет значительнo oтличаться oт давления на метеoстанции, в зависимoсти oт услoвий рельефа (при пoдъёме на 10 м давление пoнижается примернo на 1 мм рт.ст.).